Location: Hamilton
(37.7830°S, 175.2830°E)
Time: 12:46:23
(UTC+13:00)

ISS - Visible Passes

Search period start: 24 January 2019 00:00
Search period end: 03 February 2019 00:00
Orbit: 404 x 410 km, 51.6° (Epoch: 24 January)

Date Brightness Start Highest point End Pass type
(mag) Time Alt. Az. Time Alt. Az. Time Alt. Az.
26 Jan -1.3 05:40:18 10° N 05:42:32 17° NE 05:44:47 10° E visible
28 Jan -3.0 05:33:11 12° NNW 05:36:04 45° NE 05:39:17 10° ESE visible
29 Jan -2.0 04:44:01 21° NNE 04:44:48 23° NE 04:47:30 10° ESE visible
30 Jan -0.8 03:54:46 10° ENE 03:54:46 10° ENE 03:54:52 10° ENE visible
30 Jan -3.6 05:27:29 19° WNW 05:29:42 63° SW 05:33:03 10° SE visible
31 Jan -3.7 04:38:10 63° NNE 04:38:18 64° NE 04:41:38 10° SE visible
01 Feb -1.2 03:48:46 18° E 03:48:46 18° E 03:49:57 10° ESE visible
01 Feb -2.2 05:21:29 16° W 05:23:29 27° SSW 05:26:26 10° SSE visible
02 Feb -3.1 04:32:02 47° SSW 04:32:02 47° SSW 04:35:11 10° SE visible
